Theta_e
298 298 296 296 295 295 294 295 295 295 295 295 296 295 293 292 292 291 290 290 289 289
297 298 296 295 295 295 294 297 297 296 295 295 295 294 292 291 291 290 289 289 290 291
299 297 296 297 295 294 294 294 296 295 295 294 294 293 292 291 291 290 289 291 290 290
299 296 296 296 295 293 293 293 294 295 294 294 293 292 291 290 292 291 290 289 290 291
299 296 295 294 294 293 292 293 293 295 294 294 293 292 291 291 291 290 289 289 288 289
296 294 293 292 291 292 292 292 293 294 293 292 293 291 292 291 291 289 288 287 287 289
294 294 293 292 291 292 292 292 292 293 292 292 292 291 292 291 289 288 288 288 288 289
295 294 293 293 293 292 292 292 292 292 291 290 291 292 290 289 288 286 286 287 288 289
296 295 294 292 292 291 291 291 291 291 290 288 291 295 296 293 286 286 285 284 286 288
295 295 294 293 292 291 291 290 290 290 290 288 287 294 296 296 287 285 285 284 285 286
296 294 294 293 292 291 290 290 290 290 290 288 288 295 296 296 288 285 284 284 285 285
296 294 293 292 291 291 289 289 290 290 290 288 288 293 295 294 287 285 284 285 286 287
296 294 292 291 290 290 289 290 291 291 290 292 289 292 294 293 287 283 284 284 285 290
296 294 293 291 290 290 289 290 290 290 290 289 288 288 293 294 287 284 283 284 285 287
Wind_Speed
6 4 3 3 2 2 1 1 2 4 5 5 5 5 5 3 4 5 4 6 4 3
5 5 4 4 3 2 4 4 3 5 5 6 6 6 4 3 4 5 5 6 5 4
6 5 5 5 6 6 5 5 5 5 4 6 6 6 5 5 4 5 4 5 7 5
5 6 6 5 3 3 4 5 5 4 4 5 6 5 5 5 6 6 7 6 7 10
5 5 5 3 3 3 4 4 4 4 3 4 4 4 5 6 6 6 8 9 7 9
5 5 4 2 2 2 3 4 5 5 3 4 5 5 5 5 6 6 6 7 8 10
6 5 4 2 1 2 2 4 4 3 4 4 5 5 5 5 6 6 7 7 8 9
6 5 4 3 0 1 2 2 2 3 5 4 4 3 5 5 6 6 7 8 8 9
5 5 6 4 3 3 3 3 3 4 4 5 4 9 11 10 5 7 7 9 10 9
6 5 6 5 4 5 5 3 5 6 5 7 6 10 10 12 4 6 7 8 9 9
4 3 4 4 6 5 4 6 6 7 7 6 6 12 11 12 6 6 8 7 9 9
4 4 4 5 6 5 4 5 6 6 7 6 8 12 13 9 5 6 9 9 10 9
5 5 6 6 6 4 4 6 5 7 7 10 8 11 13 11 4 6 7 9 9 17
5 6 6 5 3 5 6 5 6 6 7 7 6 8 13 13 5 5 6 7 7 8
Wind_Direction
92 93 81 82 89 62 31 286 11 41 37 33 29 28 41 47 20 10 350 334 328 282
101 91 85 68 72 58 32 3 33 37 29 23 13 10 34 24 18 5 341 324 313 321
108 84 67 53 38 35 27 22 41 45 34 25 15 12 30 351 327 351 324 326 323 310
96 70 63 60 24 11 31 25 35 57 30 23 18 11 7 342 333 342 319 312 321 309
124 110 94 58 18 25 34 28 39 51 23 357 353 332 338 335 332 328 321 314 305 297
135 122 117 80 43 35 28 29 33 40 357 344 336 332 321 314 316 310 301 299 299 295
149 154 161 175 97 62 26 38 23 14 359 357 329 324 312 309 306 304 313 299 296 287
160 171 183 203 207 356 33 7 347 350 350 335 309 291 323 313 309 307 308 305 298 297
170 187 206 225 250 289 304 316 326 316 300 307 285 299 320 341 324 316 309 304 304 294
170 194 218 229 256 276 283 282 282 284 280 288 292 298 303 322 315 301 288 284 292 302
204 203 219 238 252 268 269 267 269 275 268 277 286 298 297 302 300 290 285 281 288 289
223 236 251 255 260 256 252 268 255 254 276 262 281 290 292 301 292 297 299 300 299 298
251 238 251 257 270 252 234 266 280 280 250 253 257 282 291 302 280 294 301 299 294 301
245 245 252 272 247 264 267 267 275 271 282 271 246 279 287 298 293 268 289 292 295 296